TimeEST,TemperatureF,Dew PointF,Humidity,Sea Level PressureIn,VisibilityMPH,Wind Direction,Wind SpeedMPH,Gust SpeedMPH,PrecipitationIn,Events,Conditions,WindDirDegrees,DateUTC
12:15 AM,30.2,21.2,69,30.30,10.0,NNE,3.5,-,N/A,,Clear,20,2012-11-16 05:15:00
12:35 AM,30.2,23.0,75,30.30,10.0,Calm,Calm,-,N/A,,Clear,0,2012-11-16 05:35:00
12:55 AM,30.2,23.0,75,30.30,10.0,North,3.5,-,N/A,,Clear,360,2012-11-16 05:55:00
1:15 AM,32.0,23.0,69,30.30,10.0,NNE,5.8,-,N/A,,Clear,30,2012-11-16 06:15:00
1:35 AM,30.2,21.2,69,30.30,10.0,North,3.5,-,N/A,,Clear,10,2012-11-16 06:35:00
1:55 AM,30.2,23.0,75,30.30,10.0,North,3.5,-,N/A,,Clear,350,2012-11-16 06:55:00
2:15 AM,30.2,24.8,80,30.30,10.0,North,3.5,-,N/A,,Clear,360,2012-11-16 07:15:00
2:36 AM,30.2,23.0,75,30.30,10.0,North,4.6,-,N/A,,Clear,350,2012-11-16 07:36:00
2:55 AM,32.0,24.8,75,30.31,10.0,North,3.5,-,N/A,,Clear,350,2012-11-16 07:55:00
3:15 AM,32.0,24.8,75,30.30,10.0,North,5.8,-,N/A,,Clear,360,2012-11-16 08:15:00
3:35 AM,32.0,24.8,75,30.30,10.0,North,5.8,-,N/A,,Clear,350,2012-11-16 08:35:00
3:55 AM,30.2,24.8,80,30.30,10.0,North,5.8,-,N/A,,Clear,360,2012-11-16 08:55:00
4:15 AM,32.0,23.0,69,30.29,10.0,North,3.5,-,N/A,,Clear,350,2012-11-16 09:15:00
4:35 AM,32.0,23.0,69,30.29,10.0,North,5.8,-,N/A,,Clear,10,2012-11-16 09:35:00
4:55 AM,32.0,23.0,69,30.29,10.0,NNE,5.8,-,N/A,,Clear,20,2012-11-16 09:55:00
5:15 AM,32.0,23.0,69,30.29,10.0,NNE,5.8,-,N/A,,Clear,30,2012-11-16 10:15:00
5:35 AM,32.0,23.0,69,30.29,10.0,NNE,5.8,-,N/A,,Clear,20,2012-11-16 10:35:00
5:45 AM,32.0,24.8,75,30.30,10.0,NNE,6.9,-,N/A,,Clear,20,2012-11-16 10:45:00
6:45 AM,32.0,24.8,75,30.31,10.0,Calm,Calm,-,N/A,,Clear,0,2012-11-16 11:45:00
7:45 AM,33.8,24.8,70,30.32,10.0,Calm,Calm,-,N/A,,Clear,0,2012-11-16 12:45:00
8:45 AM,35.6,26.6,70,30.33,10.0,NNE,9.2,-,N/A,,Clear,20,2012-11-16 13:45:00
9:45 AM,37.4,26.6,65,30.33,10.0,NNE,10.4,-,N/A,,Clear,30,2012-11-16 14:45:00
10:45 AM,39.2,24.8,56,30.34,10.0,NNE,10.4,-,N/A,,Clear,20,2012-11-16 15:45:00
11:55 AM,41.0,24.8,53,30.32,10.0,North,6.9,-,N/A,,Clear,10,2012-11-16 16:55:00
12:45 PM,41.0,26.6,57,30.31,10.0,North,5.8,-,N/A,,Clear,10,2012-11-16 17:45:00
1:45 PM,42.8,26.6,53,30.30,10.0,North,5.8,-,N/A,,Clear,10,2012-11-16 18:45:00
2:45 PM,44.6,24.8,46,30.31,10.0,Calm,Calm,-,N/A,,Clear,0,2012-11-16 19:45:00
3:45 PM,44.6,24.8,46,30.33,10.0,West,6.9,-,N/A,,Clear,280,2012-11-16 20:45:00
4:45 PM,42.8,24.8,49,30.34,10.0,NNW,8.1,-,N/A,,Clear,340,2012-11-16 21:45:00
5:45 PM,39.2,21.2,49,30.36,10.0,North,8.1,-,N/A,,Clear,350,2012-11-16 22:45:00
6:45 PM,37.4,21.2,52,30.37,10.0,North,5.8,-,N/A,,Clear,350,2012-11-16 23:45:00
7:45 PM,35.6,23.0,60,30.38,10.0,North,9.2,-,N/A,,Clear,360,2012-11-17 00:45:00
9:15 PM,32.0,21.2,64,30.41,10.0,North,6.9,-,N/A,,Clear,360,2012-11-17 02:15:00
9:35 PM,33.8,21.2,60,30.41,10.0,North,6.9,-,N/A,,Clear,350,2012-11-17 02:35:00
9:55 PM,32.0,19.4,60,30.41,10.0,North,4.6,-,N/A,,Clear,360,2012-11-17 02:55:00
10:15 PM,30.2,19.4,64,30.42,10.0,North,5.8,-,N/A,,Clear,360,2012-11-17 03:15:00
10:55 PM,30.2,21.2,69,30.43,10.0,North,6.9,-,N/A,,Clear,10,2012-11-17 03:55:00
11:15 PM,30.2,21.2,69,30.43,10.0,North,8.1,-,N/A,,Clear,10,2012-11-17 04:15:00
11:35 PM,30.2,21.2,69,30.44,10.0,North,5.8,-,N/A,,Clear,10,2012-11-17 04:35:00
11:55 PM,32.0,21.2,64,30.44,10.0,NNE,8.1,-,N/A,,Clear,30,2012-11-17 04:55:00